Orbital elements:
2014 MA18 Earth MOID = 0.0001 AU
Epoch 2014 May 23.0 TT = JDT 2456800.5 MPC
M 75.37997 (2000.0) P Q
n 1.20699425 Peri. 43.61453 -0.64725300 -0.75467430
a 0.8736401 Node 87.02114 +0.66655191 -0.62867322
e 0.3021627 Incl. 6.17262 +0.36982712 -0.18771437
P 0.82 H 25.5 G 0.1...
NGC 2276 (also Arp 114, Arp 25, IRAS 07101+8550, MCG 14-4-28, UGC 3740 and PGC 21039) is a magnitude 11.4 face-on barred spiral galaxy located 111 million light-years away in the constellation Cepheus. The galaxy can be found 02' NE of the double star HD 51141, whose main component is magnitude +8.0...
NGC 5959 (also MCG -3-40-2 and PGC 55625) is a magnitude +13.4 elliptical galaxy located 331 million light-years away in the constellation Libra. The galaxy was discovered by American astronomer Ormond Stone using a 66.04 cm (26 inch) refractor at the McCormick Observatory on the 26th June 1886...
NGC 6916 (also IRAS 20224+5810, MCG 10-29-4, UGC 11554 and PGC 64600) is a magnitude +13.5 barred spiral galaxy located 143 million light-years away in the constellation Cygnus. The galaxy was discovered by American astronomer Lewis A. Swift using a 40.6 cm (16 inch) Alvan Clark and Sons refractor...
The 480 - 1100 metre wide asteroid 2001 BA40 will make a close pass (70.7 lunar distances, 0.1817 AU), travelling at 10.25 km/second, to the Earth-Moon system on the 26th June 2014 @ 06:01 UT ±00:01. See moreThe Lunar Distance (LD), the distance between Earth and the Moon, equals 384,401 km, (or 0.00...
The 33 - 75 metre wide asteroid 2014 MY will make a close pass (26.1 lunar distances, 0.0672 AU), travelling at 9.57 km/second, to the Earth-Moon system on the 26th June 2014 @ 11:19 UT ±00:04. See moreThe Lunar Distance (LD), the distance between Earth and the Moon, equals 384,401 km, (or 0.00256 AU)...
The 35 - 78 metre wide asteroid 2014 KN4 will make a close pass (42.2 lunar distances, 0.1084 AU), travelling at 5.25 km/second, to the Earth-Moon system on the 26th June 2014 @ 12:44 UT ±00:04. See moreThe Lunar Distance (LD), the distance between Earth and the Moon, equals 384,401 km, (or 0.00256 AU...
Gliese 832 c is the nearest best habitable world candidate so farAn international team of astronomers, led by Robert A. Wittenmyer from UNSW Australia, report the discovery of a new potentially habitable Super-Earth around the nearby red-dwarf star Gliese 832, sixteen light years away. Th...
One hundred kilometers south west of Johannesburg, South Africa are the towns of Vredefort and Parys, the latter lying next to the Vaal river. The towns are a short deviation from the N1 highway to Cape Town. In an arc to the north and west of the towns is a partial ring of hills, some 70 kilometres in diam...
Orbital elements:
2014 MH6 Earth MOID = 0.0010 AU
Epoch 2014 May 23.0 TT = JDT 2456800.5 MPC
M 20.67809 (2000.0) P Q
n 0.72829100 Peri. 257.62980 -0.96970383 -0.20297667
a 1.2234872 Node 270.54276 +0.24094447 -0.88640288
e 0.5137141 Incl. 7.81233 -0.04025230 -0.41604134
P 1.35 H 27.0 G 0....
Massive 30-ton MicroBooNE particle detector moved into place, will see neutrinos this year On Monday, June 23, the next phase of neutrino physics at Fermilab fell (gently) into place. The MicroBooNE dectector - a 30-ton, 40-foot-long cylindrical metal tank designed to detect ghostly particle...
First live, international, satellite television production, 1967Our World - 1967 Our World was the first live, international, satellite television production, which was broadcast on 25 June 1967. 14 countries participated in the pro...